Regional Weather Roundup
Issued by NWS

Home | Current Version | Previous Version | Graphics & Text | Print | Product List | Glossary On
Versions: 1 2 3 4 5 6 7 8 9 10 11 12 13 14 15 16 17 18 19 20 21 22 23 24 25 26 27 28 29 30 31 32 33 34 35 36 37 38 39 40 41 42 43 44 45 46 47 48 49 50
000
ASUS43 KMPX 250710
RWRMN
WEATHER ROUNDUP FOR MINNESOTA
NATIONAL WEATHER SERVICE TWIN CITIES/CHANHASSEN MN
200 AM CDT TUE APR 25 2017


NOTE: "FAIR" INDICATES FEW OR NO CLOUDS BELOW 12,000 FEET WITH NO
SIGNIFICANT WEATHER AND/OR OBSTRUCTIONS TO VISIBILITY. N/A MEANS
CURRENT SKY AND/OR WEATHER CONDITIONS ARE NOT AVAILABLE.

MNZ060>063-068>070-250800-
   Twin Cities Metro

CITY           SKY/WX    TMP DP  RH WIND       PRES   REMARKS
TWIN CITIES    CLOUDY    61  37  41 SE10      29.52F
ST PAUL        CLOUDY    61  38  42 SE12      29.53F
CRYSTAL        CLOUDY    60  41  49 SE7       29.50F
BLAINE         CLOUDY    59  45  58 SE7       29.52F
LAKEVILLE      CLOUDY    61  36  39 S8        29.52F
EDEN PRAIRIE   CLOUDY    62  39  42 E7        29.50F
SOUTH ST PAUL  CLOUDY    63  32  32 SE5       29.52F
LAKE ELMO      CLOUDY    63  36  36 SE6       29.54F
$$
MNZ001>005-007-008-013>017-022>024-027-028-250800-
   Northwest Minnesota

CITY           SKY/WX    TMP DP  RH WIND       PRES   REMARKS
BEMIDJI        CLOUDY    39  38  99 NE6       29.58F
HALLOCK        CLOUDY    30  28  93 N14       29.74S WCI  20
ROSEAU         CLOUDY    30  27  86 N14       29.70R WCI  20
WARROAD        CLOUDY    32  28  86 N14G20    29.70R WCI  22
THIEF RVR FALL CLOUDY    32  31  96 N14       29.66R WCI  22
CROOKSTON      CLOUDY    32  32 100 N17       29.68R WCI  21
FOSSTON        CLOUDY    34  34 100 N14       29.62R WCI  24
DETROIT LAKES  FOG       37  37 100 N15       29.58S VSB 1
MOORHEAD       CLOUDY    34  34 100 N20G28    29.64S WCI  22
PARK RAPIDS    CLOUDY    44  40  85 N7        29.54F
MAHNOMEN       CLOUDY    36  35  98 N13       29.60R
$$
MNZ006-009>011-018-025>026-250800-
   North Central Minnesota

CITY           SKY/WX    TMP DP  RH WIND       PRES   REMARKS
BAUDETTE       CLOUDY    33  31  92 NE12      29.66R WCI  24
FLAG ISLAND    FLURRIES  30  28  93 NE14      29.70S WCI  20
INTL FALLS     LGT RAIN  36  34  92 N6        29.64F
WASKISH        DRIZZLE   37  36  93 NE7       29.62F
BIG FORK       CLOUDY    37  36  93 E5        29.59S
LONGVILLE      CLOUDY    39  37  93 CALM      29.56S
GRAND RAPIDS   LGT RAIN  37  35  92 SE5       29.60F
CRANE LAKE     LGT RAIN  34  34 100 CALM      29.65S
ORR            FLURRIES  36  32  87 CALM      29.58F
COOK           DRIZZLE   36  36 100 CALM      29.61F
WALKER         CLOUDY    39  37  93 NE3       29.57S
$$
MNZ012-019>021-037-250800-
   Northeast Minnesota

CITY           SKY/WX    TMP DP  RH WIND       PRES   REMARKS
DULUTH         LGT RAIN  39  34  82 E12       29.63S
ELY            LGT RAIN  36  36 100 CALM      29.63F
HIBBING        CLOUDY    36  35  96 SE5       29.60S
EVELETH        LGT RAIN  37  35  90 CALM      29.62R
DULUTH HARBOR  MIX PCPN  39  36  87 NE13      29.67S
TWO HARBORS    CLOUDY    45  36  70 NE7       29.62S
SILVER BAY     CLOUDY    43  36  75 NE13G21   29.62F
GRAND MARAIS     N/A     43  35  73 NE9       29.67F
G MARAIS ARPRT CLOUDY    36  28  75 N10       29.67F
$$
MNZ029>031-032-039>041-046>048-054>057-064-250800-
   West Central Minnesota

CITY           SKY/WX    TMP DP  RH WIND       PRES   REMARKS
FERGUS FALLS   FOG       37  37 100 N18G25    29.58S VSB 1
WHEATON        CLOUDY    36  34  93 NW18G25   29.62S FOG
MORRIS         CLOUDY    37  37 100 NW22      29.55S FOG
ALEXANDRIA     CLOUDY    44  44 100 NW12      29.54S FOG
ELBOW LAKE     CLOUDY    38  38 100 W17       29.57S FOG
WADENA         CLOUDY    45  43  93 N7        29.53S
GLENWOOD       CLOUDY    43  43 100 W12       29.53F FOG
APPLETON       CLOUDY    39  37  93 N16       29.57S
BENSON         CLOUDY    43  37  81 N14G22    29.57S
ORTONVILLE     CLOUDY    37  36  93 NW15      29.58S
MADISON        CLOUDY    43  43 100 NW14      29.58S
WILLMAR        CLOUDY    45  43  93 NW17      29.54F FOG
$$
MNZ033>034-036-042>043-049>051-058-059-250800-
   Central Minnesota

CITY           SKY/WX    TMP DP  RH WIND       PRES   REMARKS
ST CLOUD       LGT RAIN  55  46  71 E3        29.50F
SAUK CENTRE    CLOUDY    46  45  96 W8        29.52S
PAYNESVILLE    CLOUDY    49  49 100 W10       29.52R
AITKIN         MIX PCPN  41  36  81 E6        29.55S
PINE RIVER     CLOUDY    39  39 100 CALM      29.59F
BRAINERD       LGT RAIN  44  40  85 NE6       29.54S
STAPLES        CLOUDY    45  43  93 N5        29.53S
LONG PRAIRIE   CLOUDY    50  43  76 CALM      29.51F
LITTLE FALLS   CLOUDY    52  45  76 CALM      29.51F
LITCHFIELD     CLOUDY    57  48  72 CALM      29.51S
BUFFALO        CLOUDY    57  43  59 SE5       29.50F
MAPLE LAKE     CLOUDY    57  46  67 CALM      29.50F
HUTCHINSON     CLOUDY    56  47  73 CALM      29.51R
$$
MNZ037-044-045-052-053-250800-
   East Central Minnesota

CITY           SKY/WX    TMP DP  RH WIND       PRES   REMARKS
PRINCETON      LGT RAIN  57  46  67 NE5       29.52F
MORA           CLOUDY    43  36  75 NE6       29.57F
CAMBRIDGE      DRIZZLE   59  45  58 E5        29.50F
RUSH CITY      CLOUDY    56  44  63 NE5       29.54F
MOOSE LAKE     RAIN      36  34  93 E7        29.59S
HINCKLEY       CLOUDY    41  37  87 NE6       29.59S
CLOQUET        DRIZZLE   37  34  87 E7        29.61F
MCGREGOR       CLOUDY    37  36  93 E8        29.58F
$$
MNZ071>073-080-081-089-090-097-098-250800-
   Southwest Minnesota

CITY           SKY/WX    TMP DP  RH WIND       PRES   REMARKS
MONTEVIDEO     CLOUDY    41  37  87 N14       29.55F
GRANITE FALLS  CLOUDY    44  41  91 NW15      29.56F
CANBY          CLOUDY    40  38  92 W14       29.59S
MARSHALL       CLOUDY    40  38  93 N20       29.56S
REDWOOD FALLS  CLOUDY    45  41  86 N12       29.52F
OLIVIA         CLOUDY    43  39  87 NW14      29.52F
PIPESTONE      MOCLDY    45  37  76 N7        29.54S
WINDOM         CLOUDY    45  43  93 NW12      29.52F
WORTHINGTON    CLOUDY    45  42  89 N14       29.54R
JACKSON        MOCLDY    48  45  87 N6        29.52S
TRACY          CLOUDY    41  39  92 NW13G22   29.55F
SLAYTON        CLOUDY    41  39  93 NW14      29.55S
$$
MNZ065>067-074>077-082>085-091>093-250800-
   South Central Minnesota

CITY           SKY/WX    TMP DP  RH WIND       PRES   REMARKS
MANKATO        CLOUDY    61  35  37 S10       29.50F
NEW ULM        CLOUDY    54  46  76 W12       29.51R
ST JAMES       CLOUDY    52  46  82 NW15      29.52S
GLENCOE        CLOUDY    56  50  80 E7        29.49F
FARIBAULT      CLOUDY    63  34  34 SE9       29.53S
OWATONNA       CLOUDY    61  30  31 S13       29.53F
WASECA         CLOUDY    59  32  36 SE10      29.52F
ALBERT LEA     CLOUDY    59  32  36 S9        29.53F
$$
MNZ078>079-086>088-094>096-250800-
   Southeast Minnesota

CITY           SKY/WX    TMP DP  RH WIND       PRES   REMARKS
ROCHESTER      CLOUDY    58  33  39 S14       29.57F
RED WING       CLOUDY    64  28  25 S10       29.54F
DODGE CENTER   CLOUDY    57  32  38 S15       29.55F
WINONA         CLOUDY    63  32  31 SE9       29.59F
AUSTIN         CLOUDY    57  34  41 SE7       29.55F
PRESTON        CLOUDY    58  30  34 S14       29.59F
$$
ABBREVIATIONS USED IN REMARKS
   TC - TEMPERATURES IN CELSIUS
  WCI - WIND CHILL INDEX
   HX - HEAT INDEX
  VSB - VISIBILITY
$$



USA.gov is the U.S. government's official web portal to all federal, state and local government web resources and services.